Home > Weather > Ancona > Past weeks

Flag for Italy Past Weather in Ancona, Italy — Yesterday and Last 2 Weeks

Now
81 °F

Passing clouds.


Feels Like: 84 °F
Forecast: 71 / 86 °F
Wind: 10 mph from Northeast

Location: Falconara

Current Time: Jul 29, 2016 at 2:07:00 PM

Latest Report: Jul 29, 2016 at 12:50 PM


Visibility: N/A

Pressure: 29.98 "Hg

Humidity: 70%

Dew Point: 70 °F

Location of AnconaLocation

Past Weather in Ancona — Graph

°F

Ancona Temperature Yesterday

Maximum temperature yesterday: 79 °F (at 9:50 AM)
Minimum temperature yesterday: 68 °F (at 4:50 AM)
Average temperature yesterday: 75 °F

High & Low Weather Summary for the Past Weeks

 TemperatureHumidityPressure
High91 °F (Jul 22, 4:50 PM)94% (Jul 15, 7:50 AM)30.12 "Hg (Jul 15, 7:50 AM)
Low63 °F (Jul 15, 1:50 AM)28% (Jul 17, 6:50 PM)29.83 "Hg (Jul 15, 2:50 AM)
Average75 °F64%29.99 "Hg
* Reported Jul 14 12:50 PM — Jul 29 12:50 PM, Ancona, Weather by CustomWeather, © 2016

Note: Actual official high and low records may vary slightly from our data, if they occured in-between our weather recording intervals... More about our weather records

Advertising

Ancona Weather History for the Previous 24 Hours

Scroll right to see more
 ConditionsComfort  
Time TempWeatherWind HumidityBarometerVisibility
12:50 PM
Fri, Jul 29
81 °FPassing clouds.10 mph70%29.98 "HgN/A
11:50 AM81 °FSunny.9 mph70%29.98 "Hg10 mi
10:50 AM81 °FPassing clouds.5 mph66%29.98 "HgN/A
9:50 AM81 °FSunny.2 mph66%29.98 "Hg10 mi
8:50 AM77 °FSunny.2 mph69%29.98 "Hg10 mi
7:50 AM72 °FPassing clouds.3 mph88%29.98 "HgN/A
6:50 AM68 °FClear.2 mph94%29.95 "Hg10 mi
5:50 AM68 °FClear.3 mph94%29.95 "Hg10 mi
4:50 AM68 °FClear.3 mph94%29.95 "Hg10 mi
3:50 AM70 °FPassing clouds.3 mph88%29.95 "HgN/A
2:50 AM70 °FClear.3 mph83%29.95 "Hg10 mi
1:50 AM72 °FClear.6 mph83%29.95 "Hg10 mi
12:50 AM72 °FClear.3 mph78%29.95 "Hg10 mi
11:50 PM
Thu, Jul 28
73 °FPassing clouds.3 mph78%29.95 "HgN/A
10:50 PM73 °FPassing clouds.3 mph89%29.95 "HgN/A
9:50 PM73 °FClear.5 mph83%29.95 "Hg10 mi
8:50 PM77 °FScattered clouds.2 mph74%29.95 "HgN/A
7:50 PM77 °FPassing clouds.2 mph74%29.95 "HgN/A
6:50 PM77 °FPassing clouds.5 mph74%29.95 "HgN/A
5:50 PM79 °FScattered clouds.7 mph74%29.95 "HgN/A
4:50 PM79 °FSunny.10 mph74%29.95 "Hg10 mi
3:50 PM77 °FScattered clouds.6 mph79%29.98 "HgN/A
2:50 PM79 °FScattered clouds.10 mph79%29.98 "HgN/A
Weather by CustomWeather, © 2016

See weather overviewHow to use our weather pages